Zurich Airport, Switzerland

4:50 AM CEST on October 01, 2016 (GMT +0200)
Zurich Airport

Weather History for LSZH - April, 2013

Change the Weather History Date:

Tuesday, April 16, 2013

  Actual Average Record
Temperature  
Mean Temperature 62 °F -  
Max Temperature 72 °F 56 °F 73 °F (2007)
Min Temperature 52 °F 35 °F 28 °F (2002)
Degree Days  
Heating Degree Days 3    
Growing Degree Days 12 (Base 50)    
Moisture  
Dew Point 48 °F    
Average Humidity 59    
Maximum Humidity 82    
Minimum Humidity 33    
Precipitation  
Precipitation 0.00 in - - ()
Sea Level Pressure  
Sea Level Pressure 30.16 in    
Wind  
Wind Speed 4 mph ()    
Max Wind Speed 12 mph    
Max Gust Speed -    
Visibility 6.2 miles    
Events Rain    
Averages and records for this station are not official NWS values.
T = Trace of Precipitation, MM = Missing Value Source: Averaged Metar Reports

Daily Weather History Graph

Daily Weather History Graph

Search for Another Location

Airport or City:

Trip Planner

Search our weather history database for the weather conditions in past years. The results will help you decide how hot, cold, wet, or windy it might be!

Date:

Astronomy

Apr. 16, 2013 Rise Set
Actual Time 6:35 AM CEST 8:16 PM CEST
Civil Twilight 6:03 AM CEST 8:49 PM CEST
Nautical Twilight 5:23 AM CEST 9:28 PM CEST
Astronomical Twilight 4:40 AM CEST 10:12 PM CEST
Moon 10:28 AM CEST (4/16) 1:13 AM CEST (4/16)
Length of Visible Light 14h 46m
Length of Day
13h 41m
Waxing Crescent, 31% of the Moon is Illuminated
Apr 16
Waxing Crescent
Apr 18
First Quarter
Apr 25
Full
May 2
Last Quarter
May 10
New

Hourly Weather History & Observations

Time (CEST) Temp. Dew Point Humidity Pressure Visibility Wind Dir Wind Speed Gust Speed Precip Events Conditions
12:00 AM 60 °F 46 °F 50% 30.11 in - SE 4.6 mph - -  
12:20 AM 59.0 °F 48.2 °F 67% 30.12 in - Variable 1.2 mph - N/A   Clear
12:50 AM 57.2 °F 50.0 °F 77% 30.12 in - ESE 4.6 mph - N/A   Clear
1:00 AM 59 °F 48 °F 57% 30.12 in - ESE 4.6 mph - -  
1:20 AM 59.0 °F 48.2 °F 67% 30.12 in - Variable 2.3 mph - N/A   Clear
1:50 AM 57.2 °F 46.4 °F 67% 30.12 in - SE 2.3 mph - N/A   Clear
2:00 AM 58 °F 47 °F 56% 30.12 in 25 mi SE 3.5 mph - -   Mostly Cloudy
2:20 AM 57.2 °F 46.4 °F 67% 30.12 in - ENE 3.5 mph - N/A   Clear
2:50 AM 57.2 °F 48.2 °F 72% 30.12 in - Variable 2.3 mph - N/A   Clear
3:00 AM 56 °F 47 °F 64% 30.11 in - SE 4.6 mph - -  
3:20 AM 55.4 °F 48.2 °F 77% 30.12 in - SE 3.5 mph - N/A   Clear
3:50 AM 55.4 °F 48.2 °F 77% 30.12 in - Variable 2.3 mph - N/A   Clear
4:00 AM 56 °F 49 °F 71% 30.12 in - NE 3.5 mph - -  
4:20 AM 55.4 °F 48.2 °F 77% 30.12 in 6.2 mi Variable 2.3 mph - N/A   Mostly Cloudy
4:50 AM 55.4 °F 48.2 °F 77% 30.15 in 6.2 mi NW 3.5 mph - N/A Rain Light Rain Showers
5:20 AM 55.4 °F 48.2 °F 77% 30.15 in 6.2 mi Variable 1.2 mph - N/A   Mostly Cloudy
5:50 AM 55.4 °F 48.2 °F 77% 30.15 in - ESE 2.3 mph - N/A   Clear
6:00 AM 55 °F 48 °F 70% 30.14 in - SE 4.6 mph - -  
6:20 AM 53.6 °F 48.2 °F 82% 30.12 in - SSE 4.6 mph - N/A   Clear
6:50 AM 53.6 °F 46.4 °F 77% 30.15 in 6.2 mi SE 5.8 mph - N/A   Mostly Cloudy
7:00 AM 55 °F 47 °F 66% 30.15 in - SSE 2.3 mph - -  
7:20 AM 53.6 °F 46.4 °F 77% 30.15 in 6.2 mi ESE 4.6 mph - N/A   Mostly Cloudy
7:50 AM 55.4 °F 46.4 °F 72% 30.15 in 6.2 mi SE 4.6 mph - N/A   Mostly Cloudy
8:00 AM 56 °F 46 °F 61% 30.17 in 25 mi WSW 1.2 mph - -   Partly Cloudy
8:20 AM 57.2 °F 46.4 °F 67% 30.18 in 6.2 mi Variable 2.3 mph - N/A   Mostly Cloudy
8:50 AM 57.2 °F 50.0 °F 77% 30.18 in 6.2 mi Variable 1.2 mph - N/A   Mostly Cloudy
9:00 AM 57 °F 49 °F 65% 30.18 in - SSE 1.2 mph - -  
9:20 AM 57.2 °F 48.2 °F 72% 30.18 in 6.2 mi South 2.3 mph - N/A   Mostly Cloudy
9:50 AM 59.0 °F 48.2 °F 67% 30.18 in 6.2 mi Variable 2.3 mph - N/A   Mostly Cloudy
10:00 AM 59 °F 48 °F 58% 30.17 in - SE 2.3 mph - -  
10:20 AM 60.8 °F 48.2 °F 63% 30.18 in 6.2 mi Variable 2.3 mph - N/A   Mostly Cloudy
10:50 AM 64.4 °F 46.4 °F 52% 30.18 in 6.2 mi SW 4.6 mph - N/A   Mostly Cloudy
11:20 AM 66.2 °F 46.4 °F 49% 30.18 in 6.2 mi Variable 3.5 mph - N/A   Mostly Cloudy
11:50 AM 68.0 °F 46.4 °F 46% 30.18 in 6.2 mi Variable 4.6 mph - N/A   Mostly Cloudy
12:00 PM 67 °F 45 °F 34% 30.15 in - West 3.5 mph - -  
12:20 PM 68.0 °F 48.2 °F 49% 30.18 in 6.2 mi WSW 5.8 mph - N/A   Scattered Clouds
12:50 PM 69.8 °F 50.0 °F 49% 30.18 in 6.2 mi West 6.9 mph - N/A   Partly Cloudy
1:00 PM 68 °F 47 °F 36% 30.14 in - NNW 5.8 mph - -  
1:20 PM 69.8 °F 50.0 °F 49% 30.18 in 6.2 mi West 6.9 mph - N/A   Scattered Clouds
1:50 PM 68.0 °F 48.2 °F 49% 30.15 in 6.2 mi WNW 6.9 mph - N/A   Scattered Clouds
2:00 PM 69 °F 48 °F 36% 30.12 in 22 mi NW 5.8 mph - -   Partly Cloudy
2:20 PM 71.6 °F 48.2 °F 43% 30.15 in 6.2 mi Variable 4.6 mph - N/A   Scattered Clouds
2:50 PM 71.6 °F 50.0 °F 46% 30.15 in 6.2 mi NW 8.1 mph - N/A   Mostly Cloudy
3:00 PM 70 °F 47 °F 33% 30.12 in - NNW 5.8 mph - -  
3:20 PM 71.6 °F 50.0 °F 46% 30.15 in 6.2 mi WNW 5.8 mph - N/A   Scattered Clouds
3:50 PM 71.6 °F 48.2 °F 43% 30.15 in 6.2 mi West 8.1 mph - N/A   Scattered Clouds
4:00 PM 71 °F 48 °F 33% 30.10 in - NW 8.1 mph - -  
4:20 PM 71.6 °F 46.4 °F 41% 30.15 in 6.2 mi WNW 9.2 mph - N/A   Scattered Clouds
4:50 PM 71.6 °F 50.0 °F 46% 30.15 in 6.2 mi West 8.1 mph - N/A   Scattered Clouds
5:20 PM 69.8 °F 50.0 °F 49% 30.15 in 6.2 mi West 10.4 mph - N/A   Mostly Cloudy
5:50 PM 69.8 °F 50.0 °F 49% 30.15 in 6.2 mi West 8.1 mph - N/A   Mostly Cloudy
6:00 PM 69 °F 50 °F 40% 30.11 in - WNW 9.2 mph - -  
6:20 PM 68.0 °F 50.0 °F 52% 30.15 in 6.2 mi West 11.5 mph - N/A   Mostly Cloudy
6:50 PM 68.0 °F 50.0 °F 52% 30.15 in 6.2 mi West 8.1 mph - N/A   Mostly Cloudy
7:00 PM 67 °F 50 °F 44% 30.13 in - WNW 6.9 mph - -  
7:20 PM 68.0 °F 50.0 °F 52% 30.18 in - West 6.9 mph - N/A   Clear
7:50 PM 62.6 °F 50.0 °F 63% 30.18 in - West 4.6 mph - N/A   Clear
8:00 PM 64 °F 50 °F 51% 30.16 in 22 mi WNW 4.6 mph - -   Scattered Clouds
8:20 PM 62.6 °F 50.0 °F 63% 30.18 in - WNW 2.3 mph - N/A   Clear
8:50 PM 62.6 °F 50.0 °F 63% 30.21 in - Variable 1.2 mph - N/A   Clear
9:00 PM 64 °F 48 °F 46% 30.18 in - WSW 1.2 mph - -  
9:20 PM 62.6 °F 48.2 °F 59% 30.21 in - Variable 1.2 mph - N/A   Clear
9:50 PM 60.8 °F 48.2 °F 63% 30.21 in - Variable 2.3 mph - N/A   Clear
10:00 PM 60 °F 49 °F 57% 30.20 in - West 3.5 mph - -  
10:20 PM 57.2 °F 48.2 °F 72% 30.21 in - WSW 4.6 mph - N/A   Clear
10:50 PM 59.0 °F 48.2 °F 67% 30.21 in 6.2 mi East 2.3 mph - N/A   Mostly Cloudy
11:20 PM 59.0 °F 50.0 °F 72% 30.24 in 6.2 mi North 3.5 mph - N/A   Mostly Cloudy
11:50 PM 59.0 °F 50.0 °F 72% 30.24 in 6.2 mi NNE 1.2 mph - N/A   Mostly Cloudy